Weather History for Sussex, NJ

Change the Weather History Date:

Sunday, December 9, 2012

  Actual Average Record
Temperature  
Mean Temperature 42 °F -  
Max Temperature 46 °F 41 °F 60 °F (1980)
Min Temperature 37 °F 23 °F 3 °F (2002)
Degree Days  
Heating Degree Days 24    
Moisture  
Dew Point 37 °F    
Average Humidity 83    
Maximum Humidity 100    
Minimum Humidity 65    
Precipitation  
Precipitation 0.11 in - - ()
Sea Level Pressure  
Sea Level Pressure 30.14 in    
Wind  
Wind Speed 3 mph (NNE)    
Max Wind Speed 9 mph    
Max Gust Speed -    
Visibility 7 miles    
Events Fog , Rain    
Averages and records for this station are not official NWS values.
T = Trace of Precipitation, MM = Missing Value Source: NWS Daily Summary

Daily Weather History Graph

Daily Weather History Graph

Search for Another Location

Airport:

Trip Planner

Search our weather history database for the weather conditions in past years. The results will help you decide how hot, cold, wet, or windy it might be!

Date:

Astronomy

Dec. 09, 2012 Rise Set
Actual Time 7:12 AM EST 4:29 PM EST
Civil Twilight 6:41 AM EST 5:00 PM EST
Nautical Twilight 6:06 AM EST 5:35 PM EST
Astronomical Twilight 5:33 AM EST 6:08 PM EST
Moon 2:40 AM EST (12/9) 1:36 PM EST (12/9)
Length of Visible Light 10h 19m
Length of Day
9h 16m
Waning Crescent, 19% of the Moon is Illuminated
Dec 9
Waning Crescent
Dec 13
New
Dec 20
First Quarter
Dec 28
Full
Jan 4
Last Quarter

Hourly Weather History & Observations

Time (EST) Temp. Windchill Dew Point Humidity Pressure Visibility Wind Dir Wind Speed Gust Speed Precip Events Conditions
12:49 AM 46.4 °F - 44.6 °F 93% 30.03 in 1.8 mi Calm Calm - N/A   Overcast
12:53 AM 46.0 °F - 44.1 °F 93% 30.04 in 1.5 mi Calm Calm - N/A   Overcast
1:00 AM 46.4 °F - 44.6 °F 93% 30.03 in 1.0 mi Calm Calm - N/A   Overcast
1:10 AM 44.6 °F - 44.6 °F 100% 30.03 in 0.5 mi Calm Calm - N/A Fog Fog
1:53 AM 45.0 °F - 44.1 °F 97% 30.06 in 0.2 mi Calm Calm - N/A Fog Fog
2:41 AM 44.6 °F - 44.6 °F 100% 30.08 in 0.8 mi Calm Calm - N/A   Overcast
2:45 AM 46.4 °F - 42.8 °F 87% 30.07 in 1.5 mi Calm Calm - N/A   Overcast
2:48 AM 44.6 °F - 42.8 °F 93% 30.07 in 3.0 mi Calm Calm - N/A   Overcast
2:53 AM 45.0 °F - 43.0 °F 93% 30.08 in 7.0 mi Calm Calm - N/A   Overcast
3:06 AM 44.6 °F 43.1 °F 41.0 °F 87% 30.08 in 10.0 mi North 3.5 mph - N/A   Overcast
3:53 AM 46.0 °F 43.9 °F 39.0 °F 76% 30.10 in 10.0 mi ESE 4.6 mph - N/A   Clear
4:53 AM 46.0 °F 43.1 °F 37.9 °F 73% 30.14 in 10.0 mi Variable 5.8 mph - N/A   Clear
5:53 AM 44.1 °F 41.5 °F 37.0 °F 76% 30.15 in 10.0 mi NNW 4.6 mph - N/A   Clear
6:53 AM 42.1 °F 38.4 °F 35.1 °F 76% 30.21 in 10.0 mi NNW 5.8 mph - N/A   Clear
7:53 AM 41.0 °F 39.0 °F 34.0 °F 76% 30.22 in 10.0 mi NE 3.5 mph - N/A   Clear
8:53 AM 41.0 °F 39.0 °F 34.0 °F 76% 30.24 in 10.0 mi NE 3.5 mph - N/A   Scattered Clouds
9:03 AM 42.8 °F 40.1 °F 33.8 °F 70% 30.23 in 10.0 mi ENE 4.6 mph - N/A   Mostly Cloudy
9:53 AM 42.1 °F 37.1 °F 33.1 °F 70% 30.25 in 10.0 mi NNE 8.1 mph - N/A   Overcast
10:53 AM 41.0 °F 35.8 °F 33.1 °F 73% 30.26 in 10.0 mi NNE 8.1 mph - N/A   Overcast
11:12 AM 42.8 °F 38.6 °F 33.8 °F 70% 30.24 in 10.0 mi NNE 6.9 mph - N/A   Overcast
11:53 AM 42.1 °F 37.7 °F 34.0 °F 73% 30.24 in 10.0 mi NNE 6.9 mph - N/A   Overcast
12:53 PM 42.1 °F 37.7 °F 33.1 °F 70% 30.22 in 10.0 mi NE 6.9 mph - N/A   Overcast
1:53 PM 42.1 °F 36.6 °F 30.9 °F 65% 30.21 in 10.0 mi NE 9.2 mph - 0.00 in   Overcast
2:53 PM 42.1 °F 39.2 °F 30.9 °F 65% 30.20 in 10.0 mi NE 4.6 mph - N/A   Overcast
3:53 PM 42.1 °F 37.7 °F 30.9 °F 65% 30.21 in 10.0 mi NNE 6.9 mph - 0.00 in Rain Light Rain
5:22 PM 39.2 °F 35.0 °F 33.8 °F 81% 30.19 in 10.0 mi NNE 5.8 mph - 0.01 in Rain Light Rain
5:53 PM 39.0 °F 34.0 °F 33.1 °F 79% 30.19 in 10.0 mi NNE 6.9 mph - 0.01 in   Overcast
6:53 PM 39.0 °F 34.8 °F 34.0 °F 82% 30.19 in 5.0 mi NNE 5.8 mph - 0.00 in Rain Light Rain
7:13 PM 39.2 °F 35.0 °F 35.6 °F 87% 30.17 in 5.0 mi NNE 5.8 mph - 0.00 in Rain Light Rain
7:53 PM 37.9 °F 33.5 °F 35.1 °F 89% 30.17 in 6.0 mi NNE 5.8 mph - 0.01 in   Overcast
8:11 PM 37.4 °F 32.8 °F 35.6 °F 93% 30.15 in 3.0 mi NE 5.8 mph - N/A   Overcast
8:50 PM 37.4 °F 32.1 °F 35.6 °F 93% 30.10 in 2.5 mi NE 6.9 mph - 0.01 in Rain Light Rain
8:53 PM 37.9 °F 32.1 °F 36.0 °F 93% 30.11 in 3.0 mi NE 8.1 mph - 0.01 in Rain Light Rain
9:53 PM 39.0 °F 34.8 °F 36.0 °F 89% 30.10 in 6.0 mi NE 5.8 mph - 0.01 in Rain Light Rain
10:14 PM 39.2 °F - 37.4 °F 93% 30.08 in 6.0 mi Calm Calm - 0.01 in Rain Light Rain
10:53 PM 39.0 °F 34.8 °F 37.0 °F 93% 30.06 in 6.0 mi NNE 5.8 mph - 0.02 in Rain Light Rain
11:53 PM 39.0 °F 34.8 °F 37.0 °F 93% 30.02 in 6.0 mi NE 5.8 mph - 0.05 in Rain Light Rain